Location: ActonStarParty
(42.4766°N, 71.4538°W)
Time: 13:53:55
(UTC-04:00)

Daily predictions for brighter satellites

Satellite Brightness Start Highest point End
(mag) Time Altitude Azimuth Time Altitude Azimuth Time Altitude Azimuth
CZ-2D R/B 3.3 20:07:53 10° SSE 20:11:46 78° ENE 20:15:40 10° N
Resurs 01 Rocket 1.8 20:08:39 10° SSE 20:13:06 83° WSW 20:17:35 10° NNW
USA 229 DEB 4.4 20:10:00 10° S 20:15:49 31° ESE 20:21:43 10° NE
USA 229 4.4 20:10:08 10° S 20:15:56 31° ESE 20:21:48 10° NE
Cosmos 1844 Rocket 4.5 20:12:48 10° N 20:16:23 17° NE 20:19:56 10° E
Cosmos 1315 Rocket 4.2 20:14:51 10° NNW 20:18:42 42° W 20:22:29 10° SSW
ALOS 4.0 20:21:03 10° SSW 20:25:16 34° W 20:29:32 10° NNW
OAO 3 Rocket 4.3 20:21:23 10° WSW 20:25:40 31° S 20:29:51 11° SE
YAOGAN 6 4.1 20:23:45 10° ESE 20:26:27 20° ENE 20:29:09 10° NNE
Cosmos 1933 3.5 20:26:23 10° S 20:30:17 52° E 20:34:13 10° NNE
Cosmos 1992 Rocket 4.0 20:27:00 10° SSW 20:32:13 83° ESE 20:37:30 10° NNE
Cosmos 2026 Rocket 4.1 20:26:51 10° N 20:33:06 87° W 20:39:13 10° S
Meteor 2-10 Rocket 4.2 20:28:16 10° SSE 20:33:41 43° E 20:39:06 10° NNE
Cosmos 1733 Rocket 3.1 20:34:33 10° N 20:39:02 88° ENE 20:43:30 10° S
Cosmos 2219 Rocket 3.8 20:38:26 12° ESE 20:39:21 12° E 20:41:36 10° ENE
USA 267 3.7 20:35:34 10° NE 20:42:04 68° NW 20:48:32 10° WSW
Cosmos 1862 3.4 20:40:18 10° N 20:44:21 81° W 20:48:23 10° S
Helios 1A 3.0 20:40:07 10° SSE 20:44:22 87° WSW 20:48:39 10° NNW
Okean 1-7 4.3 20:44:11 15° SE 20:46:24 22° E 20:49:49 10° NE
Cosmos 1862 Rocket 3.6 20:45:13 10° S 20:49:41 85° W 20:54:12 10° N
Okean 2 Rocket 4.5 20:47:56 10° NNE 20:51:33 23° ENE 20:53:31 17° ESE
Meteor 1-26 Rocket 4.4 20:46:19 10° SSE 20:51:48 51° E 20:57:25 10° NNE
Cosmos 2263 Rocket 2.7 20:53:55 10° NNW 20:59:23 59° WSW 21:04:50 10° S
Cosmos 968 Rocket 3.4 20:59:48 10° NNW 21:05:02 85° ENE 21:09:04 17° SSE
USA 186 4.1 21:04:51 10° SW 21:07:02 20° W 21:09:21 10° NW
Cosmos 1939 Rocket 3.0 21:03:23 11° S 21:07:10 72° WSW 21:11:10 10° NNW
Terra 4.0 21:06:27 10° ENE 21:07:39 11° ENE 21:08:52 10° NE
Cosmos 1703 Rocket 3.6 21:06:20 12° S 21:10:23 60° E 21:14:45 10° NNE
Cosmos 2322 Rocket 3.9 21:06:50 10° WSW 21:11:58 36° WNW 21:17:09 10° N
Cosmos 2237 4.2 21:06:31 10° S 21:12:06 58° ESE 21:17:43 10° NNE
Atlas Centaur 2 3.6 21:10:12 10° SW 21:16:02 31° S 21:19:23 23° SE
USA 234 3.3 21:12:08 21° SE 21:16:44 85° NE 21:23:19 10° NW
Cosmos 2360 Rocket 2.4 21:13:45 10° SSW 21:19:24 75° WNW 21:25:06 10° NNE
Abrixas rocket 4.0 21:17:29 10° WNW 21:20:24 28° N 21:22:26 16° ENE
MetOp-B 4.3 21:17:56 25° SE 21:20:54 56° ENE 21:26:09 10° N
COSMOS 2428 2.8 21:16:02 10° S 21:21:32 52° ESE 21:27:03 10° NNE
MOS 1-B Rocket 4.3 21:19:05 25° SE 21:22:05 44° ENE 21:27:22 10° N
Cosmos 2266 Rocket 4.0 21:15:50 10° N 21:22:10 80° E 21:27:05 18° SSE
Meteor 1-29 4.3 21:19:01 10° N 21:22:18 40° WNW 21:25:33 10° SW
Envisat 3.9 21:17:59 10° S 21:22:52 47° W 21:27:46 10° NNW
Helios 1B rocket 4.0 21:22:12 10° N 21:25:58 36° WNW 21:29:44 10° SW
Lacrosse 4 Rocket 4.2 21:24:16 10° W 21:26:06 12° WSW 21:27:55 10° SW
Cosmos 1867 4.0 21:22:12 10° NW 21:27:33 57° WSW 21:30:53 22° S
H-2A R/B 2.9 21:28:32 26° E 21:29:58 31° ENE 21:34:16 10° N
ATLAS 5 CENTAUR R/B 3.1 21:25:24 10° NW 21:31:15 50° WSW 21:35:40 19° S
Milstar 3 4.3 21:26:22 10° WSW 21:31:27 19° SSW 21:33:52 16° S
NOAA 11 4.2 21:29:03 27° SSE 21:32:05 73° ENE 21:37:34 10° N
Cosmos 1844 4.2 21:26:54 10° NNW 21:32:20 45° ENE 21:34:34 30° ESE
Cosmos 2221 Rocket 3.5 21:32:02 23° S 21:34:48 83° E 21:39:16 10° N
YAOGAN 11 4.0 21:33:34 39° SE 21:35:06 69° ENE 21:39:25 10° N
Meteor 1-14 Rocket 4.3 21:31:05 10° NNW 21:36:47 78° W 21:40:44 21° S
Cosmos 2322 4.1 21:31:28 10° SW 21:37:08 64° WNW 21:42:50 10° NNE
Meteor 1-25 Rocket 4.1 21:32:17 10° N 21:37:53 80° E 21:40:41 31° SSE
ARGOS 3.2 21:37:29 34° SE 21:39:44 63° ENE 21:45:03 10° N
Cosmos 1606 3.3 21:42:02 38° ENE 21:42:02 38° ENE 21:45:07 10° NNE
Cosmos 1570 Rocket 4.4 21:42:28 39° SE 21:43:15 41° ESE 21:48:12 10° NNE
ERS-1 Rocket 3.3 21:42:02 23° S 21:45:07 61° WSW 21:50:06 10° NNW
SeaSat 1 2.8 21:44:57 38° ESE 21:46:26 51° ENE 21:51:14 10° NNW
Meteor 1-20 Rocket 4.1 21:41:57 10° N 21:47:35 85° E 21:50:10 34° SSE
Cosmos 2208 Rocket 4.3 21:53:06 45° SE 21:53:45 47° ESE 21:58:51 10° NNE
H-2A R/B 3.2 21:53:54 29° ENE 21:53:57 29° ENE 21:57:45 10° N
Cosmos 2237 Rocket 2.9 21:58:35 34° E 21:58:35 34° E 22:03:05 10° NE
Cosmos 1553 Rocket 4.3 21:57:08 39° ESE 21:58:27 45° E 22:04:18 10° NNE
Cosmos 2333 4.2 21:53:34 10° SSW 21:59:17 88° WNW 22:05:06 10° NNE
NOSS 3-1 (C) 3.3 21:54:38 12° SSW 21:59:57 65° ESE 22:06:18 10° NE
Cosmos 2333 Rocket 2.4 22:00:04 46° SE 22:00:59 51° ESE 22:06:33 10° NE
Cosmos 1844 Rocket 2.6 21:55:24 10° NNW 22:01:00 84° WSW 22:02:43 46° SSE
SPOT 5 2.8 21:59:59 47° S 22:01:20 79° WSW 22:05:57 10° NNW
SL-08 RB Rocket 3.6 22:01:17 60° SSE 22:02:05 83° ENE 22:06:40 10° N
Cosmos 2278 Rocket 2.8 21:56:57 10° NNW 22:02:21 43° ENE 22:03:38 38° E
Meteor 2-6 Rocket 4.3 22:01:35 39° S 22:03:50 72° E 22:09:47 10° NNE
USA 229 DEB 4.3 21:59:41 10° SW 22:06:24 57° NW 22:13:16 10° NNE
USA 229 4.3 21:59:47 10° SW 22:06:30 58° NW 22:13:23 10° NNE
CZ-4C R/B 3.2 22:01:50 10° NNW 22:08:46 55° NE 22:11:50 35° ESE
Iridium 4 Rocket 4.3 22:07:23 10° NNE 22:10:06 28° NE 22:10:06 28° NE
ASTEX 1 3.6 22:15:28 54° E 22:15:37 54° E 22:20:28 10° N
Cosmos 1898 Rocket 4.2 22:10:53 10° N 22:15:44 38° ENE 22:16:06 38° ENE
Cosmos 1300 Rocket 4.3 22:11:56 10° N 22:15:29 40° NE 22:15:29 40° NE
NOSS 3-1 (A) 3.3 22:15:18 50° S 22:16:37 63° ESE 22:22:58 10° NE
SPOT 1/Viking Rocket 3.5 22:16:34 56° S 22:17:42 81° WSW 22:22:57 10° NNW
Cosmos 2219 Rocket 2.1 22:20:01 36° SSW 22:22:25 87° WNW 22:28:06 10° NNE
Landsat 7 3.7 22:29:26 87° SE 22:29:30 88° E 22:34:18 10° NNW
S3M 3.8 22:28:26 59° SSE 22:29:34 74° E 22:35:47 10° N
Cosmos 1782 4.0 22:30:21 35° WSW 22:31:02 38° WNW 22:34:48 10° N
Cosmos 2084 4.2 22:34:29 10° NW 22:37:17 46° NW 22:37:17 46° NW
Meteor 2-11 Rocket 4.3 22:38:49 67° SE 22:39:23 72° E 22:45:27 10° NNE
Cosmos 1633 3.9 22:36:40 10° NNW 22:39:16 39° NW 22:39:16 39° NW
Terra 1.9 22:45:02 75° N 22:45:02 75° N 22:49:25 10° NNW
ATLAS 3B R/B 4.2 22:39:01 10° NNW 22:44:40 26° NE 22:47:54 18° ENE
Cosmos 1346 Rocket 3.9 22:46:34 43° NNW 22:46:34 43° NNW 22:49:29 10° N
Meteor 1-27 Rocket 3.7 22:46:37 64° SW 22:47:26 76° W 22:53:02 10° N
Cosmos 468 Rocket 4.4 22:50:38 53° NE 22:50:38 53° NE 22:54:52 10° NNE
deb Chang Zheng 4 4.3 22:51:00 10° N 22:54:23 52° N 22:54:23 52° N
Cosmos 2297 4.0 22:52:57 10° NNW 22:58:30 56° ENE 22:58:30 56° ENE
CZ-4B R/B 4.1 22:54:44 10° NNE 22:58:08 45° NE 22:58:08 45° NE
USA 234 4.4 22:59:28 26° SW 23:00:12 27° SW 23:05:35 10° WNW
Geosat 4.2 22:55:57 10° NNE 23:00:07 62° NNE 23:00:07 62° NNE
Spot 4 4.3 23:02:26 55° NNE 23:02:26 55° NNE 23:06:16 10° N
CARTOSAT-1 4.5 23:02:55 46° NW 23:02:55 46° NW 23:06:13 10° NNW
Cosmos 1745 Rocket 4.1 22:55:42 10° NNW 23:02:01 70° W 23:02:51 63° SW
ATLAS CENTAUR R/B 4.2 23:06:19 10° NE 23:06:19 10° NE 23:06:24 10° NE
Atlas Centaur 2 4.2 22:58:43 10° WSW 23:02:01 22° SW 23:02:01 22° SW
H-2A R/B 3.2 23:09:10 31° W 23:09:20 31° W 23:13:42 10° NW
Cosmos 2285 Rocket 4.1 23:13:34 62° ENE 23:13:34 62° ENE 23:19:14 10° NNE
Meteor 1-11 Rocket 4.4 23:08:09 10° NNW 23:13:22 44° W 23:13:39 44° WSW
Cosmos 1980 4.3 23:13:32 46° WSW 23:14:42 54° WNW 23:20:15 10° NNE
CZ-4 R/B 4.4 23:11:19 10° N 23:15:17 57° NNW 23:15:17 57° NNW
Cosmos 2298 Rocket 4.3 23:10:51 10° NNW 23:15:27 64° NW 23:15:27 64° NW
Timation 1 Rocket 4.4 23:12:21 10° NNW 23:18:00 66° W 23:18:00 66° W
Okean 1 Rocket 4.3 23:14:47 10° NNW 23:17:55 40° NW 23:17:55 40° NW
SL-16 R/B 2.8 23:22:16 49° NE 23:22:16 49° NE 23:26:27 10° NNE
SeaSat 1 4.3 23:24:45 22° W 23:24:45 22° W 23:28:00 10° NW
H-2A R/B 4.1 23:31:01 23° WNW 23:31:01 23° WNW 23:33:33 10° NW
Cosmos 1937 Rocket 4.2 23:27:43 10° NNW 23:31:47 50° NW 23:31:47 50° NW
Cosmos 2237 Rocket 3.5 23:40:20 31° W 23:41:58 36° WNW 23:47:14 10° N
Cosmos 2333 Rocket 4.0 23:41:58 15° W 23:45:30 27° NW 23:50:22 10° N
Cosmos 2278 Rocket 3.7 23:41:28 10° NW 23:45:29 27° W 23:45:29 27° W
ALOS 2 4.4 23:48:06 27° NNE 23:48:06 27° NNE 23:50:24 10° N
CZ-2C R/B 3.9 23:41:01 10° NNE 23:44:26 33° NE 23:44:26 33° NE
Cosmos 2315 Rocket 4.1 23:51:45 67° WNW 23:51:45 67° WNW 23:57:39 10° N
